Time,TemperatureF,DewpointF,PressureIn,WindDirection,WindDirectionDegrees,WindSpeedMPH,WindSpeedGustMPH,Humidity,HourlyPrecipIn,Conditions,Clouds,dailyrainin,SoftwareType,DateUTC
2013-09-22 00:02:00,48.7,46.0,30.01,North,9,0.0,0.0,91,0.00,,,0.00,weatherlink.com 1.10,2013-09-22 05:02:00,
2013-09-22 00:17:00,48.3,46.0,30.01,North,9,0.0,0.0,92,0.00,,,0.00,weatherlink.com 1.10,2013-09-22 05:17:00,
2013-09-22 00:32:00,48.2,46.0,30.01,North,9,0.0,0.0,93,0.00,,,0.00,weatherlink.com 1.10,2013-09-22 05:32:00,
2013-09-22 00:47:00,48.2,46.0,30.01,North,9,0.0,0.0,93,0.00,,,0.00,weatherlink.com 1.10,2013-09-22 05:47:00,
2013-09-22 01:02:00,48.0,46.0,30.01,North,9,0.0,0.0,93,0.00,,,0.00,weatherlink.com 1.10,2013-09-22 06:02:00,
2013-09-22 01:17:00,47.9,46.0,30.01,North,9,0.0,0.0,93,0.00,,,0.00,weatherlink.com 1.10,2013-09-22 06:17:00,
2013-09-22 01:32:00,47.4,46.0,30.02,North,9,0.0,0.0,93,0.00,,,0.00,weatherlink.com 1.10,2013-09-22 06:32:00,
2013-09-22 01:47:00,47.2,45.0,30.02,North,9,0.0,0.0,93,0.00,,,0.00,weatherlink.com 1.10,2013-09-22 06:47:00,
2013-09-22 02:02:00,47.0,45.0,30.02,North,9,0.0,0.0,93,0.00,,,0.00,weatherlink.com 1.10,2013-09-22 07:02:00,
2013-09-22 02:17:00,46.9,45.0,30.02,North,9,0.0,0.0,93,0.00,,,0.00,weatherlink.com 1.10,2013-09-22 07:17:00,
2013-09-22 02:32:00,46.9,45.0,30.02,North,9,0.0,0.0,94,0.00,,,0.00,weatherlink.com 1.10,2013-09-22 07:32:00,
2013-09-22 02:47:00,46.7,45.0,30.02,North,9,0.0,0.0,94,0.00,,,0.00,weatherlink.com 1.10,2013-09-22 07:47:00,
2013-09-22 03:02:00,46.3,45.0,30.03,North,9,0.0,0.0,94,0.00,,,0.00,weatherlink.com 1.10,2013-09-22 08:02:00,
2013-09-22 03:17:00,46.2,45.0,30.03,North,9,0.0,0.0,95,0.00,,,0.00,weatherlink.com 1.10,2013-09-22 08:17:00,
2013-09-22 03:32:00,46.1,45.0,30.03,North,9,0.0,0.0,95,0.00,,,0.00,weatherlink.com 1.10,2013-09-22 08:32:00,
2013-09-22 03:47:00,46.0,45.0,30.04,North,9,0.0,0.0,95,0.00,,,0.00,weatherlink.com 1.10,2013-09-22 08:47:00,
2013-09-22 04:02:00,45.8,45.0,30.04,North,9,0.0,0.0,95,0.00,,,0.00,weatherlink.com 1.10,2013-09-22 09:02:00,
2013-09-22 04:17:00,45.6,45.0,30.04,North,9,0.0,0.0,96,0.00,,,0.00,weatherlink.com 1.10,2013-09-22 09:17:00,
2013-09-22 04:32:00,45.5,45.0,30.04,North,9,0.0,0.0,96,0.00,,,0.00,weatherlink.com 1.10,2013-09-22 09:32:00,
2013-09-22 04:47:00,45.3,44.0,30.04,North,9,0.0,0.0,96,0.00,,,0.00,weatherlink.com 1.10,2013-09-22 09:47:00,
2013-09-22 05:02:00,45.0,44.0,30.04,North,9,0.0,0.0,96,0.00,,,0.00,weatherlink.com 1.10,2013-09-22 10:02:00,
2013-09-22 05:17:00,45.0,44.0,30.04,North,9,0.0,0.0,96,0.00,,,0.00,weatherlink.com 1.10,2013-09-22 10:17:00,
2013-09-22 05:32:00,44.4,43.0,30.04,North,9,0.0,0.0,95,0.00,,,0.00,weatherlink.com 1.10,2013-09-22 10:32:00,
2013-09-22 05:47:00,44.0,43.0,30.05,North,9,0.0,0.0,96,0.00,,,0.00,weatherlink.com 1.10,2013-09-22 10:47:00,
2013-09-22 06:02:00,43.6,43.0,30.05,North,9,0.0,0.0,96,0.00,,,0.00,weatherlink.com 1.10,2013-09-22 11:02:00,
2013-09-22 06:17:00,43.5,43.0,30.06,North,9,0.0,0.0,96,0.00,,,0.00,weatherlink.com 1.10,2013-09-22 11:17:00,
2013-09-22 06:32:00,41.9,41.0,30.07,North,11,1.0,4.0,95,0.00,,,0.00,weatherlink.com 1.10,2013-09-22 11:32:00,
2013-09-22 06:47:00,41.7,41.0,30.07,North,11,0.0,2.0,96,0.00,,,0.00,weatherlink.com 1.10,2013-09-22 11:47:00,
2013-09-22 07:02:00,42.0,41.0,30.08,North,11,0.0,0.0,97,0.00,,,0.00,weatherlink.com 1.10,2013-09-22 12:02:00,
2013-09-22 07:17:00,42.3,42.0,30.08,North,11,0.0,0.0,97,0.00,,,0.00,weatherlink.com 1.10,2013-09-22 12:17:00,
2013-09-22 07:32:00,42.9,42.0,30.08,North,11,0.0,0.0,97,0.00,,,0.00,weatherlink.com 1.10,2013-09-22 12:32:00,
2013-09-22 07:47:00,43.3,43.0,30.09,North,11,0.0,0.0,97,0.00,,,0.00,weatherlink.com 1.10,2013-09-22 12:47:00,
2013-09-22 08:02:00,44.0,44.0,30.09,North,11,0.0,0.0,98,0.01,,,0.01,weatherlink.com 1.10,2013-09-22 13:02:00,
2013-09-22 08:17:00,44.9,44.0,30.09,North,11,0.0,0.0,98,0.01,,,0.01,weatherlink.com 1.10,2013-09-22 13:17:00,
2013-09-22 08:32:00,46.2,46.0,30.10,North,5,0.0,1.0,98,0.01,,,0.01,weatherlink.com 1.10,2013-09-22 13:32:00,
2013-09-22 08:47:00,47.7,47.0,30.11,North,5,0.0,0.0,98,0.01,,,0.01,weatherlink.com 1.10,2013-09-22 13:47:00,
2013-09-22 09:02:00,48.9,48.0,30.11,North,5,1.0,2.0,97,0.00,,,0.01,weatherlink.com 1.10,2013-09-22 14:02:00,
2013-09-22 09:18:00,50.4,49.0,30.11,North,11,0.0,3.0,94,0.00,,,0.01,weatherlink.com 1.10,2013-09-22 14:18:00,
2013-09-22 09:33:00,52.1,49.0,30.11,North,5,0.0,1.0,90,0.00,,,0.01,weatherlink.com 1.10,2013-09-22 14:33:00,
2013-09-22 09:48:00,54.6,50.0,30.11,North,5,0.0,0.0,84,0.00,,,0.01,weatherlink.com 1.10,2013-09-22 14:48:00,
2013-09-22 10:03:00,57.1,50.0,30.11,NNE,21,0.0,1.0,76,0.00,,,0.01,weatherlink.com 1.10,2013-09-22 15:03:00,
2013-09-22 10:18:00,58.5,50.0,30.11,SSE,155,1.0,4.0,73,0.00,,,0.01,weatherlink.com 1.10,2013-09-22 15:18:00,
2013-09-22 10:33:00,58.7,50.0,30.11,North,355,0.0,3.0,73,0.00,,,0.01,weatherlink.com 1.10,2013-09-22 15:33:00,
2013-09-22 10:48:00,59.5,50.0,30.11,SW,220,1.0,4.0,70,0.00,,,0.01,weatherlink.com 1.10,2013-09-22 15:48:00,
2013-09-22 11:03:00,59.8,50.0,30.11,NW,305,2.0,2.0,70,0.00,,,0.01,weatherlink.com 1.10,2013-09-22 16:03:00,
2013-09-22 11:18:00,60.0,49.0,30.11,SW,223,0.0,2.0,68,0.00,,,0.01,weatherlink.com 1.10,2013-09-22 16:18:00,
2013-09-22 11:33:00,59.8,50.0,30.10,SW,223,0.0,1.0,69,0.00,,,0.01,weatherlink.com 1.10,2013-09-22 16:33:00,
2013-09-22 11:48:00,60.5,51.0,30.10,ESE,117,0.0,2.0,70,0.00,,,0.01,weatherlink.com 1.10,2013-09-22 16:48:00,
2013-09-22 12:03:00,62.4,49.0,30.10,South,169,0.0,4.0,62,0.00,,,0.01,weatherlink.com 1.10,2013-09-22 17:03:00,
2013-09-22 12:18:00,62.5,49.0,30.09,SW,225,1.0,5.0,62,0.00,,,0.01,weatherlink.com 1.10,2013-09-22 17:18:00,
2013-09-22 12:33:00,62.9,50.0,30.09,SE,139,0.0,4.0,63,0.00,,,0.01,weatherlink.com 1.10,2013-09-22 17:33:00,
2013-09-22 12:48:00,64.0,51.0,30.08,NE,49,0.0,1.0,64,0.00,,,0.01,weatherlink.com 1.10,2013-09-22 17:48:00,
2013-09-22 13:03:00,64.4,49.0,30.08,North,360,2.0,3.0,57,0.00,,,0.01,weatherlink.com 1.10,2013-09-22 18:03:00,
2013-09-22 13:18:00,64.4,48.0,30.07,SW,234,0.0,4.0,56,0.00,,,0.01,weatherlink.com 1.10,2013-09-22 18:18:00,
2013-09-22 13:33:00,65.0,49.0,30.07,SE,136,0.0,3.0,57,0.00,,,0.01,weatherlink.com 1.10,2013-09-22 18:33:00,
2013-09-22 13:48:00,65.4,51.0,30.06,East,82,0.0,2.0,59,0.00,,,0.01,weatherlink.com 1.10,2013-09-22 18:48:00,
2013-09-22 14:03:00,66.1,49.0,30.07,North,9,2.0,2.0,55,0.00,,,0.01,weatherlink.com 1.10,2013-09-22 19:03:00,
2013-09-22 14:18:00,66.2,50.0,30.06,North,355,0.0,4.0,56,0.00,,,0.01,weatherlink.com 1.10,2013-09-22 19:18:00,
2013-09-22 14:33:00,66.1,47.0,30.05,South,186,0.0,4.0,51,0.00,,,0.01,weatherlink.com 1.10,2013-09-22 19:33:00,
2013-09-22 14:48:00,66.6,49.0,30.05,NE,36,1.0,2.0,54,0.00,,,0.01,weatherlink.com 1.10,2013-09-22 19:48:00,
2013-09-22 15:03:00,67.0,49.0,30.04,SSE,155,2.0,3.0,53,0.00,,,0.01,weatherlink.com 1.10,2013-09-22 20:03:00,
2013-09-22 15:18:00,66.9,51.0,30.04,North,350,0.0,5.0,56,0.00,,,0.01,weatherlink.com 1.10,2013-09-22 20:18:00,
2013-09-22 15:33:00,67.1,50.0,30.04,NE,46,0.0,4.0,54,0.00,,,0.01,weatherlink.com 1.10,2013-09-22 20:33:00,
2013-09-22 15:48:00,67.0,50.0,30.03,SE,128,0.0,3.0,54,0.00,,,0.01,weatherlink.com 1.10,2013-09-22 20:48:00,
2013-09-22 16:03:00,66.9,51.0,30.03,ENE,67,0.0,2.0,56,0.00,,,0.01,weatherlink.com 1.10,2013-09-22 21:03:00,
2013-09-22 16:18:00,67.1,50.0,30.03,SE,134,0.0,4.0,54,0.00,,,0.01,weatherlink.com 1.10,2013-09-22 21:18:00,
2013-09-22 16:33:00,66.2,48.0,30.02,SE,142,0.0,4.0,53,0.00,,,0.01,weatherlink.com 1.10,2013-09-22 21:33:00,
2013-09-22 16:48:00,66.1,49.0,30.02,ESE,117,0.0,3.0,55,0.00,,,0.01,weatherlink.com 1.10,2013-09-22 21:48:00,
2013-09-22 17:03:00,65.6,49.0,30.02,ENE,58,0.0,2.0,56,0.00,,,0.01,weatherlink.com 1.10,2013-09-22 22:03:00,
2013-09-22 17:18:00,65.2,48.0,30.02,SE,132,0.0,3.0,54,0.00,,,0.01,weatherlink.com 1.10,2013-09-22 22:18:00,
2013-09-22 17:33:00,64.9,50.0,30.02,SE,138,0.0,1.0,59,0.00,,,0.01,weatherlink.com 1.10,2013-09-22 22:33:00,
2013-09-22 17:48:00,64.0,50.0,30.03,SE,131,0.0,1.0,61,0.00,,,0.01,weatherlink.com 1.10,2013-09-22 22:48:00,
2013-09-22 18:03:00,63.1,49.0,30.03,SE,127,0.0,0.0,61,0.00,,,0.01,weatherlink.com 1.10,2013-09-22 23:03:00,
2013-09-22 18:18:00,62.4,49.0,30.03,SE,127,0.0,0.0,61,0.00,,,0.01,weatherlink.com 1.10,2013-09-22 23:18:00,
2013-09-22 18:33:00,61.8,48.0,30.04,SE,127,0.0,0.0,61,0.00,,,0.01,weatherlink.com 1.10,2013-09-22 23:33:00,
2013-09-22 18:48:00,61.2,47.0,30.04,SE,127,0.0,0.0,61,0.00,,,0.01,weatherlink.com 1.10,2013-09-22 23:48:00,
2013-09-22 19:03:00,60.5,48.0,30.04,SE,127,0.0,0.0,63,0.00,,,0.01,weatherlink.com 1.10,2013-09-23 00:03:00,
2013-09-22 19:18:00,59.8,48.0,30.04,SE,127,0.0,0.0,65,0.00,,,0.01,weatherlink.com 1.10,2013-09-23 00:18:00,
2013-09-22 19:33:00,59.1,48.0,30.04,SE,127,0.0,0.0,66,0.00,,,0.01,weatherlink.com 1.10,2013-09-23 00:33:00,
2013-09-22 19:48:00,58.8,47.0,30.04,SE,127,0.0,0.0,66,0.00,,,0.01,weatherlink.com 1.10,2013-09-23 00:48:00,
2013-09-22 20:04:00,58.3,47.0,30.05,East,92,1.0,1.0,67,0.00,,,0.01,weatherlink.com 1.10,2013-09-23 01:04:00,
2013-09-22 20:19:00,58.0,47.0,30.05,East,90,0.0,1.0,67,0.00,,,0.01,weatherlink.com 1.10,2013-09-23 01:19:00,
2013-09-22 20:34:00,57.7,48.0,30.05,East,89,0.0,0.0,69,0.00,,,0.01,weatherlink.com 1.10,2013-09-23 01:34:00,
2013-09-22 20:49:00,56.9,47.0,30.05,East,89,0.0,0.0,70,0.00,,,0.01,weatherlink.com 1.10,2013-09-23 01:49:00,
2013-09-22 21:04:00,56.3,47.0,30.05,East,88,0.0,0.0,71,0.00,,,0.01,weatherlink.com 1.10,2013-09-23 02:04:00,
2013-09-22 21:19:00,56.0,47.0,30.06,East,87,0.0,1.0,73,0.00,,,0.01,weatherlink.com 1.10,2013-09-23 02:19:00,
2013-09-22 21:34:00,55.2,48.0,30.06,NNE,31,0.0,1.0,76,0.00,,,0.01,weatherlink.com 1.10,2013-09-23 02:34:00,
2013-09-22 21:49:00,54.2,48.0,30.07,NNE,31,0.0,0.0,79,0.00,,,0.01,weatherlink.com 1.10,2013-09-23 02:49:00,
2013-09-22 22:04:00,53.5,48.0,30.07,NE,34,0.0,1.0,81,0.00,,,0.01,weatherlink.com 1.10,2013-09-23 03:04:00,
2013-09-22 22:19:00,53.0,48.0,30.07,NE,34,0.0,1.0,82,0.00,,,0.01,weatherlink.com 1.10,2013-09-23 03:19:00,
2013-09-22 22:34:00,52.5,48.0,30.07,NNW,332,0.0,2.0,83,0.00,,,0.01,weatherlink.com 1.10,2013-09-23 03:34:00,
2013-09-22 22:49:00,52.1,47.0,30.07,North,9,1.0,2.0,84,0.00,,,0.01,weatherlink.com 1.10,2013-09-23 03:49:00,
2013-09-22 23:04:00,51.6,47.0,30.07,North,5,0.0,2.0,85,0.00,,,0.01,weatherlink.com 1.10,2013-09-23 04:04:00,
2013-09-22 23:19:00,51.2,47.0,30.07,North,5,0.0,1.0,86,0.00,,,0.01,weatherlink.com 1.10,2013-09-23 04:19:00,
2013-09-22 23:34:00,50.8,47.0,30.07,North,355,0.0,2.0,87,0.00,,,0.01,weatherlink.com 1.10,2013-09-23 04:34:00,
2013-09-22 23:49:00,50.5,47.0,30.07,ESE,115,0.0,3.0,88,0.00,,,0.01,weatherlink.com 1.10,2013-09-23 04:49:00,